Weather History for Antalya, Turkey

Change the Weather History Date:

Tuesday, October 30, 2012

  Actual Average Record
Temperature  
Mean Temperature 66 °F -  
Max Temperature 73 °F 70 °F 81 °F (2013)
Min Temperature 59 °F 51 °F 44 °F (2003)
Cooling Degree Days 1    
Growing Degree Days 16 (Base 50)    
Moisture  
Dew Point 62 °F    
Average Humidity 87    
Maximum Humidity 100    
Minimum Humidity 69    
Precipitation  
Precipitation 0.12 in 0.20 in - ()
Sea Level Pressure  
Sea Level Pressure 29.93 in    
Wind  
Wind Speed 3 mph ()    
Max Wind Speed 7 mph    
Max Gust Speed -    
Visibility 6.0 miles    
Events Rain , Thunderstorm    
Averages and records for this station are not official NWS values.
T = Trace of Precipitation, MM = Missing Value Source: Averaged Metar Reports

Daily Weather History Graph

Daily Weather History Graph

Search for Another Location

Airport:

Trip Planner

Search our weather history database for the weather conditions in past years. The results will help you decide how hot, cold, wet, or windy it might be!

Date:

Astronomy

Oct. 30, 2012 Rise Set
Actual Time 6:18 AM EET 5:01 PM EET
Civil Twilight 5:52 AM EET 5:28 PM EET
Nautical Twilight 5:21 AM EET 5:58 PM EET
Astronomical Twilight 4:51 AM EET 6:28 PM EET
Moon 5:19 PM EET (10/30) 6:45 AM EET (10/30)
Length of Visible Light 11h 36m
Length of Day
10h 42m
Full, 100% of the Moon is Illuminated
Oct 30
Full
Nov 7
Last Quarter
Nov 14
New
Nov 20
First Quarter
Nov 28
Full

Hourly Weather History & Observations

Time (EET) Temp. Dew Point Humidity Pressure Visibility Wind Dir Wind Speed Gust Speed Precip Events Conditions
12:20 AM 62.6 °F 60.8 °F 94% 29.95 in 6.2 mi NNW 3.5 mph - N/A   Scattered Clouds
12:50 AM 62.6 °F 60.8 °F 94% 29.95 in 6.2 mi North 4.6 mph - N/A   Scattered Clouds
1:20 AM 60.8 °F 59.0 °F 94% 29.95 in 6.2 mi North 3.5 mph - N/A   Scattered Clouds
1:50 AM 62.6 °F 60.8 °F 94% 29.95 in 6.2 mi NNW 4.6 mph - N/A   Scattered Clouds
2:00 AM 62 °F 60 °F 90% 29.93 in 6 mi NNW 4.6 mph - -   Partly Cloudy
2:20 AM 62.6 °F 60.8 °F 94% 29.95 in 6.2 mi North 4.6 mph - N/A   Scattered Clouds
2:50 AM 62.6 °F 60.8 °F 94% 29.95 in 6.2 mi North 3.5 mph - N/A   Scattered Clouds
3:20 AM 62.6 °F 59.0 °F 88% 29.92 in 6.2 mi North 3.5 mph - N/A   Scattered Clouds
3:50 AM 62.6 °F 59.0 °F 88% 29.92 in 6.2 mi NNW 3.5 mph - N/A   Scattered Clouds
4:20 AM 60.8 °F 59.0 °F 94% 29.92 in 6.2 mi Variable 2.3 mph - N/A   Scattered Clouds
4:50 AM 60.8 °F 59.0 °F 94% 29.92 in 6.2 mi NNW 4.6 mph - N/A   Scattered Clouds
5:20 AM 60.8 °F 59.0 °F 94% 29.92 in 6.2 mi North 2.3 mph - N/A   Scattered Clouds
5:50 AM 59.0 °F 59.0 °F 100% 29.92 in 6.2 mi NW 4.6 mph - N/A   Scattered Clouds
6:20 AM 60.8 °F 59.0 °F 94% 29.92 in 6.2 mi NNE 4.6 mph - N/A   Scattered Clouds
6:50 AM 62.6 °F 59.0 °F 88% 29.92 in 6.2 mi West 3.5 mph - N/A   Scattered Clouds
7:20 AM 64.4 °F 60.8 °F 88% 29.92 in 6.2 mi NW 4.6 mph - N/A   Scattered Clouds
7:50 AM 64.4 °F 60.8 °F 88% 29.95 in 6.2 mi NW 4.6 mph - N/A   Mostly Cloudy
8:00 AM 65 °F 60 °F 81% 29.93 in 6 mi NW 4.6 mph - -   Mostly Cloudy
8:20 AM 66.2 °F 60.8 °F 83% 29.95 in 6.2 mi WNW 4.6 mph - N/A   Mostly Cloudy
8:50 AM 66.2 °F 62.6 °F 88% 29.95 in 6.2 mi NW 5.8 mph - N/A   Mostly Cloudy
9:20 AM 68.0 °F 60.8 °F 78% 29.98 in 6.2 mi NW 6.9 mph - N/A Rain , Thunderstorm Light Thunderstorms and Rain
9:50 AM 66.2 °F 62.6 °F 88% 29.98 in 6.2 mi Variable 2.3 mph - N/A Rain , Thunderstorm Light Thunderstorms and Rain
10:20 AM 66.2 °F 62.6 °F 88% 29.95 in 6.2 mi Variable 2.3 mph - N/A Rain , Thunderstorm Light Thunderstorms and Rain
10:50 AM 66.2 °F 62.6 °F 88% 29.95 in 3.7 mi ESE 4.6 mph - N/A Rain , Thunderstorm Light Thunderstorms and Rain
11:20 AM 66.2 °F 62.6 °F 88% 29.92 in 3.7 mi Variable 6.9 mph - N/A Rain , Thunderstorm Light Thunderstorms and Rain
11:50 AM 66.2 °F 62.6 °F 88% 29.95 in 3.7 mi Variable 3.5 mph - N/A Rain , Thunderstorm Light Thunderstorms and Rain
12:20 PM 68.0 °F 64.4 °F 88% 29.92 in 6.2 mi NNW 6.9 mph - N/A Rain , Thunderstorm Light Thunderstorms and Rain
12:50 PM 69.8 °F 64.4 °F 83% 29.92 in 6.2 mi NW 3.5 mph - N/A   Mostly Cloudy
1:20 PM 71.6 °F 64.4 °F 78% 29.92 in 6.2 mi Variable 2.3 mph - N/A   Mostly Cloudy
1:50 PM 71.6 °F 64.4 °F 78% 29.92 in 6.2 mi WSW 4.6 mph - N/A   Mostly Cloudy
2:00 PM 71 °F 63 °F 69% 29.92 in 6 mi WSW 4.6 mph - -   Partly Cloudy
2:20 PM 71.6 °F 62.6 °F 73% 29.92 in 6.2 mi Variable 2.3 mph - N/A   Mostly Cloudy
2:50 PM 71.6 °F 62.6 °F 73% 29.92 in 6.2 mi West 3.5 mph - N/A   Mostly Cloudy
3:20 PM 73.4 °F 64.4 °F 73% 29.89 in 6.2 mi Variable 1.2 mph - N/A   Scattered Clouds
3:50 PM 71.6 °F 62.6 °F 73% 29.89 in 6.2 mi Variable 2.3 mph - N/A   Scattered Clouds
4:20 PM 71.6 °F 62.6 °F 73% 29.89 in 6.2 mi Variable 1.2 mph - N/A   Scattered Clouds
4:50 PM 69.8 °F 62.6 °F 78% 29.92 in 6.2 mi Variable 1.2 mph - N/A   Scattered Clouds
5:20 PM 68.0 °F 64.4 °F 88% 29.92 in 6.2 mi Variable 1.2 mph - N/A   Scattered Clouds
5:50 PM 66.2 °F 62.6 °F 88% 29.92 in 6.2 mi Calm Calm - N/A   Scattered Clouds
6:20 PM 66.2 °F 62.6 °F 88% 29.92 in 6.2 mi Variable 2.3 mph - N/A   Scattered Clouds
6:50 PM 66.2 °F 62.6 °F 88% 29.92 in 6.2 mi Variable 2.3 mph - N/A   Scattered Clouds
7:20 PM 64.4 °F 62.6 °F 94% 29.95 in 6.2 mi Variable 2.3 mph - N/A   Scattered Clouds
7:50 PM 64.4 °F 62.6 °F 94% 29.95 in 6.2 mi Variable 1.2 mph - N/A   Scattered Clouds
8:00 PM 65 °F 63 °F 90% 29.93 in 6 mi NW 1.2 mph - -   Partly Cloudy
8:20 PM 66.2 °F 62.6 °F 88% 29.95 in 6.2 mi NW 3.5 mph - N/A   Scattered Clouds
8:50 PM 64.4 °F 60.8 °F 88% 29.95 in 6.2 mi North 5.8 mph - N/A   Scattered Clouds
9:20 PM 66.2 °F 60.8 °F 83% 29.95 in 6.2 mi NW 5.8 mph - N/A   Scattered Clouds
9:50 PM 64.4 °F 60.8 °F 88% 29.98 in 6.2 mi NW 4.6 mph - N/A   Scattered Clouds
10:20 PM 64.4 °F 60.8 °F 88% 29.98 in 6.2 mi North 4.6 mph - N/A   Scattered Clouds
10:50 PM 64.4 °F 60.8 °F 88% 29.95 in 6.2 mi NNW 4.6 mph - N/A   Scattered Clouds
11:20 PM 64.4 °F 60.8 °F 88% 29.95 in 6.2 mi NNW 5.8 mph - N/A   Scattered Clouds
11:50 PM 64.4 °F 60.8 °F 88% 29.95 in 6.2 mi Variable 1.2 mph - N/A   Scattered Clouds